Vientiane, Lao Peoples Republic

11:49 PM +07 on October 19, 2017 (GMT +0700)
Wattay International

Weather History for VLVT - August, 2013

Change the Weather History Date:

Thursday, August 15, 2013

  Actual Average Record
Temperature  
Mean Temperature 84 °F -  
Max Temperature 92 °F 82 °F 93 °F (1997)
Min Temperature 76 °F 76 °F 75 °F (1999)
Cooling Degree Days 19    
Growing Degree Days 34 (Base 50)    
Moisture  
Dew Point 77 °F    
Average Humidity 77    
Maximum Humidity 89    
Minimum Humidity 57    
Precipitation  
Precipitation 0.12 in 0.41 in - ()
Sea Level Pressure  
Sea Level Pressure 29.68 in    
Wind  
Wind Speed 4 mph ()    
Max Wind Speed 9 mph    
Max Gust Speed -    
Visibility 5.2 miles    
Events Thunderstorm    
Averages and records for this station are not official NWS values.
T = Trace of Precipitation, MM = Missing Value Source: Averaged Metar Reports

Daily Weather History Graph

Daily Weather History Graph

Search for Another Location

Airport or City:

Trip Planner

Search our weather history database for the weather conditions in past years. The results will help you decide how hot, cold, wet, or windy it might be!

Date:

Astronomy

Aug. 15, 2013 Rise Set
Actual Time 5:52 AM +07 6:36 PM +07
Civil Twilight 5:29 AM +07 6:58 PM +07
Nautical Twilight 5:02 AM +07 7:25 PM +07
Astronomical Twilight 4:35 AM +07 7:52 PM +07
Moon 1:06 PM +07 (8/15) No Moon Set
Length of Visible Light 13h 29m
Length of Day
12h 44m
First Quarter, 59% of the Moon is Illuminated
Aug 15
First Quarter
Aug 21
Full
Aug 28
Last Quarter
Sep 5
New
Sep 13
First Quarter

Hourly Weather History & Observations

Time (+07) Temp. Heat Index Dew Point Humidity Pressure Visibility Wind Dir Wind Speed Gust Speed Precip Events Conditions
7:00 AM 77 °F - 74 °F 89% 29.69 in 4 mi SW 2.2 mph - -   Mist
7:00 AM 77.0 °F - 73.4 °F 89% 29.71 in 3.7 mi SW 2.3 mph - N/A   Partly Cloudy
7:30 AM 77.0 °F - 73.4 °F 89% 29.71 in 3.7 mi WSW 2.3 mph - N/A   Partly Cloudy
8:00 AM 78.8 °F - 75.2 °F 89% 29.74 in 5.0 mi WSW 2.3 mph - N/A   Partly Cloudy
8:30 AM 78.8 °F - 75.2 °F 89% 29.74 in 5.0 mi West 2.3 mph - N/A   Partly Cloudy
9:00 AM 80.6 °F 86.2 °F 75.2 °F 84% 29.74 in 6.2 mi SSW 2.3 mph - N/A   Scattered Clouds
9:30 AM 80.6 °F 86.2 °F 75.2 °F 84% 29.74 in 6.2 mi WSW 2.3 mph - N/A   Scattered Clouds
10:00 AM 84.2 °F 94.1 °F 77.0 °F 79% 29.74 in 6.2 mi SW 4.6 mph - N/A   Partly Cloudy
10:30 AM 84.2 °F 94.1 °F 77.0 °F 79% 29.74 in 6.2 mi WSW 4.6 mph - N/A   Partly Cloudy
11:00 AM 87.8 °F 99.7 °F 77.0 °F 70% 29.71 in 6.2 mi South 4.6 mph - N/A   Partly Cloudy
11:30 AM 87.8 °F 99.7 °F 77.0 °F 70% 29.71 in 6.2 mi SSW 4.6 mph - N/A   Partly Cloudy
12:00 PM 89.6 °F 102.2 °F 77.0 °F 66% 29.71 in 6.2 mi WNW 9.2 mph - N/A   Partly Cloudy
12:30 PM 89.6 °F 102.2 °F 77.0 °F 66% 29.71 in 6.2 mi West 4.6 mph - N/A   Partly Cloudy
1:00 PM 90 °F - 77 °F 57% 29.65 in 9 mi SSW 6.7 mph - -   Partly Cloudy
1:00 PM 89.6 °F 102.2 °F 77.0 °F 66% 29.68 in 6.2 mi SSW 6.9 mph - N/A   Scattered Clouds
1:30 PM 89.6 °F 102.2 °F 77.0 °F 66% 29.68 in 6.2 mi WSW 4.6 mph - N/A   Scattered Clouds
2:00 PM 91.4 °F 105.1 °F 77.0 °F 63% 29.68 in 6.2 mi South 6.9 mph - N/A   Scattered Clouds
2:30 PM 91.4 °F 105.1 °F 77.0 °F 63% 29.68 in 6.2 mi West 9.2 mph - N/A   Scattered Clouds
3:00 PM 89.6 °F 104.7 °F 78.8 °F 70% 29.65 in 6.2 mi SSE 2.3 mph - N/A   Scattered Clouds
3:30 PM 89.6 °F 104.7 °F 78.8 °F 70% 29.65 in 6.2 mi South 4.6 mph - N/A   Scattered Clouds
4:00 PM 89.6 °F 104.7 °F 78.8 °F 70% 29.65 in 6.2 mi NW 4.6 mph - N/A   Scattered Clouds
4:30 PM 89.6 °F 104.7 °F 78.8 °F 70% 29.65 in 6.2 mi West 4.6 mph - N/A   Scattered Clouds
5:00 PM 87.8 °F 102.5 °F 78.8 °F 75% 29.62 in 6.2 mi SW 6.9 mph - N/A   Scattered Clouds
5:30 PM 87.8 °F 102.5 °F 78.8 °F 75% 29.62 in 6.2 mi West 6.9 mph - N/A   Scattered Clouds
6:00 PM 86.0 °F 99.3 °F 78.8 °F 79% 29.65 in 4.3 mi WNW 4.6 mph - N/A   Scattered Clouds
6:30 PM 86.0 °F 99.3 °F 78.8 °F 79% 29.65 in 4.3 mi West 4.6 mph - N/A   Scattered Clouds
7:00 PM 83 °F - 78 °F 82% 29.63 in 2 mi SE 2.2 mph - -   Scattered Clouds
7:00 PM 82.4 °F 92.4 °F 78.8 °F 89% 29.65 in 2.5 mi North 2.3 mph - N/A Thunderstorm Thunderstorm
7:30 PM 82.4 °F 92.4 °F 78.8 °F 89% 29.65 in 2.5 mi WNW 2.3 mph - N/A Thunderstorm Thunderstorm
8:00 PM 82.4 °F 92.4 °F 78.8 °F 89% 29.68 in 1.9 mi West 4.6 mph - N/A Thunderstorm Thunderstorm
8:30 PM 82.4 °F 92.4 °F 78.8 °F 89% 29.68 in 1.9 mi West 2.3 mph - N/A   Mostly Cloudy